Location: Shepherdstown, WV
(39.4326°N, 77.8042°W)
Time: 18:40:54
(UTC-04:00)

STARLINK-2616 - Pass Details

Date: 19 June 2021
Orbit: 348 x 351 km, 53.0° (Epoch: 26 July)

Event Time Altitude Azimuth Distance (km) Brightness Sun altitude
Rises 14:14:24 0° 299° (WNW) 2,232 6.8 69.3°
Reaches altitude 10° 14:16:41 10° 284° (WNW) 1,373 6.0 69.0°
Maximum altitude 14:19:12 23° 229° (SW) 838 5.4 68.7°
Drops below altitude 10° 14:21:41 10° 174° (S) 1,353 6.0 68.3°
Enters shadow 14:47:12 -52° 137° (SE) 10,450 9.6 64.4°
Exits shadow 15:23:09 -57° 334° (NNW) 11,128 9.8 58.1°
